Grand Forks AFB, ND

12:27 AM CDT on April 25, 2017 (GMT -0500)
Grand Forks Air Force Base

Weather History for KRDR - October, 2013

Change the Weather History Date:

Wednesday, October 30, 2013

  Actual Average Record
Temperature  
Mean Temperature 36 °F -  
Max Temperature 40 °F 43 °F 72 °F (2007)
Min Temperature 32 °F 26 °F 12 °F (1996)
Degree Days  
Heating Degree Days 29    
Moisture  
Dew Point 30 °F    
Average Humidity 76    
Maximum Humidity 85    
Minimum Humidity 70    
Precipitation  
Precipitation 0.00 in - - ()
Sea Level Pressure  
Sea Level Pressure 29.93 in    
Wind  
Wind Speed 4 mph (South)    
Max Wind Speed 10 mph    
Max Gust Speed -    
Visibility 10 miles    
Events      
Averages and records for this station are not official NWS values.
T = Trace of Precipitation, MM = Missing Value Source: NWS Daily Summary

Daily Weather History Graph

Daily Weather History Graph

Search for Another Location

Airport or City:

Trip Planner

Search our weather history database for the weather conditions in past years. The results will help you decide how hot, cold, wet, or windy it might be!

Date:

Astronomy

Oct. 30, 2013 Rise Set
Actual Time 8:11 AM CDT 6:13 PM CDT
Civil Twilight 7:39 AM CDT 6:46 PM CDT
Nautical Twilight 7:02 AM CDT 7:22 PM CDT
Astronomical Twilight 6:26 AM CDT 7:58 PM CDT
Moon 3:44 AM CDT (10/30) 4:15 PM CDT (10/30)
Length of Visible Light 11h 06m
Length of Day
10h 02m
Waning Crescent, 17% of the Moon is Illuminated
Oct 30
Waning Crescent
Nov 3
New
Nov 9
First Quarter
Nov 17
Full
Nov 25
Last Quarter

Hourly Weather History & Observations

Time (CDT) Temp. Windchill Dew Point Humidity Pressure Visibility Wind Dir Wind Speed Gust Speed Precip Events Conditions
12:58 AM 32.9 °F - 25.7 °F 75% 30.15 in 10.0 mi South 1.2 mph - N/A   Overcast
1:58 AM 33.3 °F 28.9 °F 24.8 °F 71% 30.14 in 10.0 mi South 4.6 mph - N/A   Overcast
2:58 AM 33.1 °F - 25.7 °F 74% 30.12 in 10.0 mi South 2.3 mph - N/A   Overcast
3:58 AM 33.4 °F 30.4 °F 25.3 °F 72% 30.10 in 10.0 mi South 3.5 mph - N/A   Overcast
4:58 AM 33.4 °F 29.1 °F 26.1 °F 74% 30.08 in 10.0 mi South 4.6 mph - N/A   Overcast
5:58 AM 33.4 °F 29.1 °F 26.4 °F 75% 30.07 in 10.0 mi South 4.6 mph - N/A   Overcast
6:23 AM 32.0 °F 27.5 °F 26.6 °F 80% 30.02 in 10.0 mi SSE 4.6 mph - N/A   Overcast
6:38 AM 32.0 °F 28.7 °F 26.6 °F 80% 30.01 in 10.0 mi SSE 3.5 mph - N/A   Overcast
6:48 AM 32.0 °F 28.7 °F 26.6 °F 80% 30.01 in 10.0 mi SSW 3.5 mph - N/A   Overcast
6:58 AM 33.6 °F 30.6 °F 26.6 °F 75% 30.06 in 10.0 mi South 3.5 mph - N/A   Overcast
7:58 AM 33.8 °F 29.6 °F 26.8 °F 75% 30.02 in 10.0 mi South 4.6 mph - N/A   Overcast
8:58 AM 34.2 °F 28.2 °F 26.8 °F 74% 30.03 in 10.0 mi South 6.9 mph - N/A   Overcast
9:58 AM 34.9 °F 32.0 °F 26.8 °F 72% 30.01 in 10.0 mi South 3.5 mph - N/A   Mostly Cloudy
10:58 AM 37.0 °F 31.6 °F 28.0 °F 70% 30.00 in 10.0 mi South 6.9 mph - N/A   Overcast
11:58 AM 38.1 °F 32.9 °F 29.3 °F 71% 29.99 in 10.0 mi SSW 6.9 mph - N/A   Overcast
12:03 PM 37.4 °F 32.1 °F 30.2 °F 75% 29.94 in 10.0 mi SSW 6.9 mph - N/A   Overcast
12:58 PM 38.7 °F 34.3 °F 29.8 °F 71% 29.95 in 10.0 mi WSW 5.8 mph - N/A   Overcast
1:58 PM 39.6 °F 36.3 °F 30.7 °F 71% 29.91 in 10.0 mi SW 4.6 mph - N/A   Overcast
2:58 PM 39.9 °F 36.7 °F 31.3 °F 71% 29.88 in 10.0 mi SSW 4.6 mph - N/A   Overcast
3:58 PM 39.9 °F 36.7 °F 31.6 °F 72% 29.85 in 10.0 mi South 4.6 mph - N/A   Overcast
4:58 PM 40.3 °F 35.5 °F 32.5 °F 74% 29.83 in 10.0 mi South 6.9 mph - N/A   Overcast
5:58 PM 39.2 °F 35.9 °F 32.9 °F 78% 29.81 in 10.0 mi South 4.6 mph - N/A   Overcast
6:23 PM 39.2 °F 35.9 °F 32.0 °F 75% 29.75 in 10.0 mi South 4.6 mph - N/A   Overcast
6:58 PM 38.5 °F 35.0 °F 33.4 °F 82% 29.78 in 10.0 mi South 4.6 mph - N/A   Overcast
7:58 PM 38.5 °F 34.1 °F 33.4 °F 82% 29.77 in 10.0 mi South 5.8 mph - N/A   Overcast
8:58 PM 38.3 °F 31.4 °F 34.2 °F 85% 29.76 in 10.0 mi South 10.4 mph - N/A   Overcast
9:58 PM 38.5 °F 34.1 °F 34.2 °F 84% 29.75 in 10.0 mi South 5.8 mph - N/A   Overcast
10:23 PM 39.2 °F 34.2 °F 33.8 °F 81% 29.70 in 10.0 mi South 6.9 mph - N/A   Overcast
10:58 PM 38.5 °F 33.4 °F 34.2 °F 84% 29.74 in 10.0 mi South 6.9 mph - N/A   Overcast
11:58 PM 38.7 °F 34.3 °F 34.0 °F 83% 29.71 in 10.0 mi SSW 5.8 mph - N/A   Overcast